Preview of NWS' New Version of Forecast
This preview is not operational and should not be used for support decisions.
Latest weather observations around

Seattle, Seattle Boeing Field (KBFI)

Using English Units (Switch to International System of Units)
Date/ Time (PDT) Wind (mph) Vis. (mi) Weather Sky Cond. Temp (°F) Rel. Humidity Wind Chill (°F) Heat Index (°F) Pressure Precip. (in)
Air Dwpt 6 hour Altimeter (inHg) Sea level (inHg) 1 hr 3 hr 6 hr
Max Min
Aug 25 21:53 NW 5 10 Clear CLR 66 52     61%     30.2 30.19      
Aug 25 20:53 Calm 10 Clear CLR 69 51     53%     30.19 30.19      
Aug 25 19:53 NW 6 10 Mostly Clear FEW050 71 48     44%   70 30.18 30.18      
Aug 25 18:53 NNW 6 10 Clear CLR 73 48     41%   72 30.17 30.17      
Aug 25 17:53 7 10 Partly Cloudy SCT050 74 48     40%   73 30.17 30.17      
Aug 25 16:53 WNW 6 10 Partly Cloudy SCT050 74 47     38%   73 30.18 30.18      
Aug 25 15:53 W 6 10 Clear CLR 74 48     40%   73 30.19 30.19      
Aug 25 14:53 WNW 7 10 Partly Cloudy SCT048 74 50     43%   73 30.19 30.18      
Aug 25 13:53 7 10 Partly Cloudy SCT042 73 51     46%   72 30.19 30.19      
Aug 25 12:53 6 10 Mostly Cloudy BKN040 71 52     51%   70 30.19 30.19      
Aug 25 11:53 S 3 10 Mostly Cloudy BKN034 67 52     59%     30.2 30.2      
Aug 25 11:19 E 3 10 Cloudy BKN032 OVC040 66 51     59%     30.2        
Aug 25 10:53 5 10 Mostly Cloudy BKN027 BKN050 66 51     59%     30.19 30.19      
Aug 25 09:53 Calm 10 Mostly Cloudy BKN027 BKN050 65 51     61%     30.18 30.17      
Aug 25 09:40 3 10 Mostly Cloudy BKN031 BKN060 65 51     61%     30.17        
Aug 25 08:53 ENE 6 10 Mostly Cloudy SCT037 BKN049 64 51     63%     30.16 30.16      
Aug 25 08:04 E 7 10 Cloudy BKN028 OVC045 63 51     65%     30.15        
Aug 25 07:53 E 6 10 Mostly Cloudy BKN045 62 51     67%     30.15 30.15      
Aug 25 06:53 ENE 3 10 Mostly Cloudy BKN030 62 50     65%     30.12 30.12      
Aug 25 05:53 ENE 5 10 Cloudy OVC027 62 50     65%     30.11 30.1      
Aug 25 05:40 Calm 10 Cloudy BKN025 OVC030 62 50     65%     30.1        
Aug 25 04:53 E 3 10 Mostly Cloudy BKN060 62 50     65%     30.09 30.09      
Aug 25 03:53 ENE 3 10 Cloudy FEW027 OVC060 62 50     65%     30.07 30.07      
Aug 25 02:53 5 10 Mostly Cloudy FEW027 BKN055 62 50     65%     30.07 30.07      
Aug 25 01:53 5 10 Cloudy BKN055 OVC070 63 50     63%     30.07 30.07      
Aug 25 00:53 NE 5 10 Cloudy OVC055 64 52     65%     30.06 30.06      
Aug 24 23:53 E 7 10 Cloudy OVC050 65 53     65%     30.05 30.04      
Aug 24 22:53 3 10 Cloudy OVC047 67 53     61%     30.03 30.03      
Aug 24 21:53 5 10 Cloudy OVC044 68 52     57%     30.02 30.02      
Aug 24 20:53 ENE 7 10 Cloudy OVC040 69 52     54%     30.02 30.01      
Aug 24 19:53 5 10 Mostly Cloudy BKN040 BKN050 69 52     54%     30.01 30.01      
Aug 24 18:53 6 10 Partly Cloudy FEW055 SCT250 71 52     51%   70 29.99 29.99      
Aug 24 17:53 7 10 Mostly Cloudy FEW055 BKN070 72 51     48%   71 29.99 29.98      
Aug 24 16:53 W 8 10 Mostly Clear FEW055 FEW070 77 55     47%   77 29.98 29.98      
Aug 24 15:53 3 10 Mostly Cloudy BKN040 BKN047 75 55     50%   75 29.98 29.98      
Aug 24 14:53 WSW 6 10 Clear CLR 75 54     48%   74 29.98 29.98      
Aug 24 13:53 5 10 Clear CLR 73 52     48%   72 29.99 29.99      
Aug 24 12:53 5 10 Clear CLR 72 52     49%   71 29.99 29.99      
Aug 24 11:53 S 6 10 Mostly Cloudy BKN080 70 50     49%     29.99 29.99      
Aug 24 10:53 SW 7 10 Mostly Cloudy FEW027 BKN080 67 51     57%     30 29.99      
Aug 24 09:53 SE 5 10 Partly Cloudy FEW027 SCT080 66 51     59%     29.97 29.97      
Aug 24 09:46 SSE 6 10 Partly Cloudy FEW027 SCT080 66 51     59%     29.97        
Aug 24 09:12 S 7 10 Mostly Cloudy BKN028 64 50     60%     29.98        
Aug 24 08:53 SE 6 10 Mostly Cloudy SCT017 BKN085 63 51     65%     29.97 29.97      
Aug 24 08:48 SSE 6 10 Mostly Cloudy SCT017 BKN085 64 50     60%     29.97        
Aug 24 07:53 Calm 10 Cloudy BKN025 OVC060 63 51     65%     29.98 29.98      
Aug 24 06:53 Calm 10 Mostly Cloudy SCT025 BKN085 60 49     67%     29.95 29.95      
Aug 24 05:53 Calm 10 Mostly Cloudy BKN023 61 49     64%     29.95 29.95      
Aug 24 04:53 Calm 10 Mostly Cloudy FEW023 BKN042 62 49     62%     29.94 29.93      
Aug 24 03:53 Calm 10 Cloudy SCT021 BKN047 OVC090 62 49     62%     29.93 29.93      
Aug 24 02:53 3 10 Cloudy SCT048 OVC075 62 49     62%     29.94 29.93      
Aug 24 01:53 Calm 10 Mostly Cloudy FEW050 BKN085 63 52     67%     29.92 29.92      
Aug 24 00:53 5 10 Mostly Cloudy BKN049 64 52     65%     29.93 29.93      
Aug 23 23:53 3 10 Cloudy OVC047 65 54     68%     29.92 29.92      
Aug 23 22:53 WNW 3 10 Cloudy OVC050 64 54     70%     29.94 29.93      
Aug 23 21:53 NW 7 10 Mostly Cloudy BKN050 BKN100 64 54     70%     29.93 29.93      
Aug 23 20:53 W 5 10 Cloudy BKN050 OVC100 64 53     67%     29.93 29.93      
Aug 23 19:53 NW 5 10 Mostly Cloudy BKN100 67 51     57%     29.93 29.92      
Aug 23 18:53 5 10 Mostly Cloudy SCT010 BKN200 68 50     53%     29.91 29.91      
Aug 23 17:53 WNW 5 10 Cloudy SCT010 OVC200 70 52     53%     29.91 29.91      
Aug 23 16:53 NW 5 10 Clear CLR 71 52     51%   70 29.91 29.91      
Aug 23 15:53 5 10 Mostly Cloudy BKN110 71 52     51%   70 29.93 29.92      
Aug 23 14:53 Calm 10 Mostly Cloudy BKN110 73 52     48%   72 29.92 29.92      
Aug 23 13:53 ENE 3 10 Cloudy OVC110 70 51     51%     29.95 29.95      
Aug 23 12:53 3 10 Partly Cloudy SCT200 69 52     54%     29.98 29.98      
Aug 23 11:53 NW 10 10 Mostly Cloudy SCT022 BKN200 67 51     57%     29.98 29.98      
Aug 23 10:53 3 10 Partly Cloudy FEW025 SCT200 65 53     65%     29.99 29.98      
Aug 23 09:53 W 3 10 Mostly Cloudy SCT011 SCT020 BKN250 64 55     73%     30 29.99      
Aug 23 08:53 E 5 10 Mostly Cloudy SCT011 SCT020 BKN250 63 55     75%     30 29.99      
Aug 23 07:53 Calm 10 Partly Cloudy SCT010 SCT200 58 53     84%     30.01 30      
Aug 23 06:53 SSE 6 10 Partly Cloudy SCT250 56 52     87%     30 30      
Aug 23 05:53 SSE 5 10 Partly Cloudy SCT250 56 51     84%     29.99 29.99      
Aug 23 04:53 S 6 10 Clear CLR 57 52     83%     29.99 29.99      
Aug 23 03:53 SE 3 10 Clear CLR 57 52     83%     29.99 29.99      
Aug 23 02:53 Calm 10 Clear CLR 59 53     81%     30 29.99      
Aug 23 01:53 SSE 5 10 Clear CLR 58 53     84%     30.01 30.01      
Aug 23 00:53 SSE 5 10 Clear CLR 61 53     75%     30.02 30.01      
Aug 22 23:53 Calm 10 Clear CLR 62 53     72%     30.02 30.02      
Aug 22 22:53 Calm 10 Clear CLR 63 52     67%     30.03 30.03     0
Aug 22 21:53 Calm 10 Clear CLR 65 51     61%     30.04 30.03      
Aug 22 20:53 Calm 10 Clear CLR 66 50     56%     30.04 30.03 0    
May 15 05:53 SSW 6 10 Cloudy OVC008 55 51     86%     29.92 29.92      
May 14 14:53 NNW 8 10 Clear CLR 83 51     33%   81 29.88 29.88      
May 13 17:53 NW 7 10 Clear CLR 81 47     30%   80 29.87 29.87      
May 13 11:53 Calm 10 Clear CLR 71 54     55%   70 29.95 29.94      
May 13 10:53 6 10 Clear CLR 69 53     57%     29.95 29.95      
May 13 08:53 ENE 3 10 Clear CLR 64 51     63%     29.98 29.97      
May 12 01:53 SE 6 10 Clear CLR 53 47     80%     30.19 30.19      
May 12 00:53 Calm 10 Clear CLR 57 46     67%     30.19 30.19      
May 11 17:53 3 10 Partly Cloudy SCT046 67 46     47%     30.2 30.2      
Jun 12 03:53 SSE 8 10 Mostly Cloudy BKN060 53 51     93%     30 30      
Jun 12 02:53 SSE 7 10 Mostly Cloudy BKN055 54 51     90%     30 29.99      
Jun 11 22:53 Calm 10 Clear CLR 61 49     64%     29.99 29.99      
Jun 11 14:53 NW 8 10 Clear   69 48     47%     30 29.99      
Jun 11 01:53 Calm 10 Mostly Cloudy BKN085 57 47     69%     29.97 29.97      
Jun 10 23:53 Calm 10 Cloudy OVC075 59 47     64%     29.95 29.95      
Jun 10 15:53 NNW 7 10 Clear   65 44     47%     29.85 29.85      
Jun 08 08:44 SSE 8 10 Light Rain SCT007 BKN038 OVC095 57 57     100%     29.66   0    
Jun 07 14:53 6 10 Cloudy SCT140 OVC250 79 54     42%   79 29.69 29.69      
Jun 06 00:53 3 10 Clear CLR 60 46     60%     30.04 30.04      
Jun 05 20:53 NW 6 10 Clear CLR 65 46     50%     30.05 30.05      
Jun 05 19:53 NW 6 10 Mostly Cloudy BKN200 67 47     49%     30.05 30.05      
Jun 05 15:53 WNW 9 10 Mostly Cloudy BKN250 71 45     39%   70 30.08 30.07